Simultaneous Nadir Overpasses (SNOs) Predictions

Prediction of SNOs between GOES-15 and TERRA Satellite Orbit:

Table of predicted SNOs for the next 14.0 days since TLE Epoch: 12/21/2013
Index Date Time (GOES-15) GOES-15 Lat,Lon TERRA Lat,Lon Distance(km) Time Diff (sec)
1 12/21/2013 07:37:02 0.06,-135.08 -0.19,-136.41 150.62 80
2 12/23/2013 07:22:11 0.06,-135.02 0.39,-133.45 178.30 80
3 12/23/2013 19:46:06 -0.04,-134.97 0.75,-138.60 413.62 80
4 12/25/2013 19:33:55 -0.04,-134.90 0.13,-135.64 85.29 80
5 12/27/2013 19:19:04 -0.05,-134.82 -0.50,-132.69 242.37 80
6 12/28/2013 07:43:07 0.03,-134.84 -0.62,-137.88 345.52 80
7 12/30/2013 07:30:55 0.03,-134.75 -0.02,-134.91 19.02 80
8 01/01/2014 07:16:04 0.04,-134.66 0.60,-131.95 307.19 80
9 01/01/2014 19:39:58
